Flag for U.S.A. Weather past 2 weeks in Seattle, Washington, U.S.A.

Now
33 °F

Sunny.


Feels Like: 28 °F
Forecast: 36 / 49 °F
Wind: 6 mph from South

Location: Seattle Boeing Field

Current Time: Mar 3, 2015 at 7:32:45 AM

Latest Report: Mar 3, 2015 at 6:53 AM


Visibility: 10 mi

Pressure: 30.23 "Hg

Humidity: 82%

Dew point: 28 °F

Location of SeattleLocation

Historic Weather in Seattle — Graph

°F

Seattle temperature yesterday

Maximum temperature yesterday: 54 °F (at 2:53 PM)
Minimum temperature yesterday: 39 °F (at 11:53 PM)
Average temperature yesterday: 48 °F

Past Weeks' High & Low Weather Summary

 TemperatureHumidityPressure
High61 °F (Feb 16, 1:53 PM)93% (Feb 22, 7:53 AM)30.47 "Hg (Feb 22, 7:53 AM)
Low32 °F (Mar 3, 5:53 AM)24% (Feb 28, 4:53 PM)29.72 "Hg (Feb 27, 5:53 AM)
Average49 °F65%30.22 "Hg
* Reported Feb 16 5:53 AM — Mar 3 5:53 AM, Seattle, Weather by CustomWeather, © 2015

Note: Actual official high and low records may vary slightly from our data, if they occured in-between our weather recording intervals... More about our weather records

Advertising

Seattle weather history for previous 24 hours

 ConditionsComfort  
Time TempWeatherWind HumidityBarometerVisibility
5:53 AM
Tue, Mar 3
32 °FClear.8 mph82%30.22 "Hg10 mi
4:53 AM36 °FClear.3 mph79%30.22 "Hg10 mi
3:53 AM36 °FClear.6 mph79%30.22 "Hg10 mi
2:53 AM38 °FClear.3 mph76%30.20 "Hg10 mi
1:53 AM38 °FClear.No wind76%30.18 "Hg10 mi
12:53 AM39 °FClear.No wind73%30.17 "Hg10 mi
11:53 PM
Mon, Mar 2
39 °FClear.No wind73%30.16 "Hg10 mi
10:53 PM47 °FClear.No wind61%30.14 "Hg10 mi
9:53 PM48 °FClear.No wind56%30.11 "Hg10 mi
8:53 PM48 °FClear.No wind54%30.09 "Hg10 mi
7:53 PM49 °FClear.No wind48%30.08 "Hg10 mi
6:53 PM50 °FPassing clouds.No wind44%30.07 "Hg10 mi
5:53 PM52 °FScattered clouds.6 mph45%30.05 "Hg10 mi
4:53 PM53 °FPassing clouds.9 mph38%30.05 "Hg10 mi
3:53 PM54 °FSunny.12 mph41%30.04 "Hg10 mi
2:53 PM54 °FScattered clouds.12 mph47%30.02 "Hg10 mi
1:53 PM53 °FScattered clouds.10 mph48%30.02 "Hg10 mi
12:53 PM52 °FPartly sunny.10 mph55%30.03 "Hg10 mi
11:53 AM49 °FPartly sunny.10 mph61%30.04 "Hg10 mi
10:53 AM49 °FPartly sunny.8 mph59%30.04 "Hg10 mi
9:53 AM48 °FOvercast.7 mph61%30.04 "Hg10 mi
8:53 AM47 °FBroken clouds.5 mph64%30.04 "Hg10 mi
7:53 AM46 °FBroken clouds.6 mph66%30.03 "Hg10 mi
Weather by CustomWeather, © 2015

See weather overviewHow to use our weather pages